TimeCST,TemperatureF,Dew PointF,Humidity,Sea Level PressureIn,VisibilityMPH,Wind Direction,Wind SpeedMPH,Gust SpeedMPH,PrecipitationIn,Events,Conditions,WindDirDegrees,DateUTC
12:53 AM,30.0,23.0,75,30.40,10.0,East,5.8,-,N/A,,Overcast,90,2013-02-09 06:53:00
1:53 AM,30.0,24.1,79,30.39,10.0,East,5.8,-,N/A,,Overcast,100,2013-02-09 07:53:00
2:53 AM,30.0,23.0,75,30.39,10.0,East,6.9,-,N/A,,Overcast,90,2013-02-09 08:53:00
3:53 AM,30.0,24.1,79,30.39,10.0,ESE,9.2,-,N/A,,Overcast,110,2013-02-09 09:53:00
4:53 AM,30.0,23.0,75,30.40,10.0,SE,6.9,-,N/A,,Overcast,130,2013-02-09 10:53:00
5:53 AM,30.0,24.1,79,30.40,10.0,SSE,9.2,-,N/A,,Overcast,160,2013-02-09 11:53:00
6:53 AM,28.9,21.9,75,30.39,10.0,SE,10.4,-,N/A,,Overcast,130,2013-02-09 12:53:00
7:53 AM,30.0,24.1,79,30.38,10.0,SE,11.5,-,N/A,,Overcast,140,2013-02-09 13:53:00
8:53 AM,30.0,24.1,79,30.39,10.0,SSE,11.5,-,N/A,,Overcast,160,2013-02-09 14:53:00
9:53 AM,30.9,24.1,76,30.39,10.0,SSE,12.7,18.4,N/A,,Overcast,150,2013-02-09 15:53:00
10:53 AM,30.9,25.0,79,30.39,10.0,South,11.5,-,N/A,,Overcast,170,2013-02-09 16:53:00
11:53 AM,32.0,25.0,75,30.35,10.0,SSE,8.1,-,N/A,,Overcast,160,2013-02-09 17:53:00
12:53 PM,35.1,27.0,72,30.32,10.0,SE,6.9,-,N/A,,Mostly Cloudy,140,2013-02-09 18:53:00
1:32 PM,35.6,28.4,75,30.28,10.0,South,9.2,-,N/A,,Scattered Clouds,170,2013-02-09 19:32:00
1:53 PM,37.0,28.9,73,30.30,10.0,SSE,10.4,-,N/A,,Partly Cloudy,160,2013-02-09 19:53:00
2:53 PM,39.0,30.0,70,30.26,10.0,SE,11.5,-,N/A,,Clear,140,2013-02-09 20:53:00
3:53 PM,39.9,30.0,68,30.22,10.0,SE,10.4,-,N/A,,Clear,140,2013-02-09 21:53:00
4:53 PM,37.9,30.0,73,30.22,10.0,SE,9.2,-,N/A,,Clear,140,2013-02-09 22:53:00
5:53 PM,33.1,28.9,85,30.20,10.0,SE,8.1,-,N/A,,Clear,130,2013-02-09 23:53:00
6:53 PM,33.1,28.9,85,30.19,10.0,SE,8.1,-,N/A,,Clear,130,2013-02-10 00:53:00
7:53 PM,34.0,28.9,82,30.17,10.0,SE,9.2,-,N/A,,Clear,130,2013-02-10 01:53:00
8:53 PM,34.0,28.9,82,30.15,10.0,ESE,9.2,-,N/A,,Clear,120,2013-02-10 02:53:00
9:53 PM,33.1,28.9,85,30.14,10.0,ESE,8.1,-,N/A,,Clear,120,2013-02-10 03:53:00
10:53 PM,34.0,28.9,82,30.12,10.0,SE,11.5,-,N/A,,Clear,130,2013-02-10 04:53:00
11:53 PM,34.0,28.9,82,30.10,10.0,SE,11.5,-,N/A,,Clear,130,2013-02-10 05:53:00